Location: Bottens
(46.6171°N, 6.6605°E)
Time: 14:05:01
(UTC+00:00)

ATLAS 5 CENTAUR R/B - Pass Details

Date: 29 October 2021
Orbit: 497 x 1159 km, 63.4° (Epoch: 25 November)

Event Time Altitude Azimuth Distance (km) Brightness Sun altitude
Rises 17:57:45 0° 288° (WNW) 2,744 6.2 -16.9°
Reaches altitude 10° 18:01:04 10° 318° (NW) 1,958 4.7 -17.4°
Maximum altitude 18:03:05 13° 346° (NNW) 1,849 4.1 -17.8°
Drops below altitude 10° 18:05:15 10° 13° (NNE) 2,120 4.2 -18.1°
Enters shadow 18:06:26 - 24° (NNE) 2,394 4.3 -18.3°
